一网星座-0711星 (ONEWEB-0711)

导读

ONEWEB-0711是一颗由英国发射的商业通信卫星,属于OneWeb卫星互联网星座的组成部分,该星座旨在搭建覆盖全球的低轨卫星互联网,为世界各地提供高速宽带服务。该卫星于2023年1月10日发射入轨,进一步扩充了OneWeb星座的网络覆盖能力与服务容量,助力低轨卫星通信网络的全球部署进程。

Basic Information
目录编号:
55174
目录名称:
ONEWEB-0711
国际标识:
2023-004AL
轨道中心:
EARTH
卫星名称:
一网星座-0711星
卫星全名:
一网星座-0711星 (ONEWEB-0711)
卫星状态:
在轨 (已飞行1295 天)
发射日期:
2023-01-10 UTC
国别 :
英国 (GB)
星等 :
--
Orbit Information
数据来源 国际轨道数据 AOE轨道数据
星历时间 2026-07-27T17:12:51+0800
17小时前
查看轨道信息
2026-07-26T07:00:00+0800
2天前
查看轨道信息
半长轴 7595.827km 7595.833km
偏心率 0.0001388 0.0001262
轨道倾角 87.889° 87.889°
近地点辐角 66.477° 67.700°
升交点赤经 13.063° 13.347°
平近点角 293.651° 45.926°
近地点 1216.635km 1216.737km
远地点 1218.745km 1218.655km
周期 109.805分钟 109.805分钟
每日圈数 13.114152 13.114136
Detailed Information
平衡模式:
三轴稳定
覆盖范围:
全球
运营商:
一网卫星公司
运营商所在国:
英国
制造商(研发单位):
一网卫星公司
制造商所在国:
英国
使用方式:
暂无
Satellite Introduction
OneWeb卫星网络由648颗重约125公斤的微型卫星组成,运行在1200公里的轨道上。 每颗卫星都能够提供至少每秒8千兆位的吞吐量,以使用其高吞吐量的Ku频段有效载荷为家庭和移动平台提供互联网接入。该卫星仍在工作。
2D Orbit Map
3D Orbit Map
Orbit Altitude Analysis Chart
Orbit Inclination Analysis Chart
Orbit Comprehensive Analysis Chart
View Comprehensive Chart